Regional Weather Roundup
Issued by NWS

Home | Current Version | Previous Version | Text Only | Print | Product List | Glossary On
Versions: 1 2 3 4 5 6 7 8 9 10 11 12 13 14 15 16 17 18 19 20 21 22 23 24 25 26 27 28 29 30 31 32 33 34 35 36 37 38 39 40 41 42 43 44 45 46 47 48 49 50
825
ASUS44 KLIX 281611
RWRLA
LOUISIANA WEATHER ROUNDUP
NATIONAL WEATHER SERVICE NEW ORLEANS LA
1100 AM CDT SUN AUG 28 2016

NOTE: "FAIR" INDICATES FEW OR NO CLOUDS BELOW 12,000 FEET WITH NO
      SIGNIFICANT WEATHER AND/OR OBSTRUCTIONS TO VISIBILITY.
      SKY/WX - SKY CONDITION AND SIGNIFICANT WEATHER.
      TMP - AIR TEMPERATURE.    DP   - DEWPOINT TEMPERATURE.
      RH  - RELATIVE HUMIDITY.  PRES - PRESSURE.
      HX  - HEAT INDEX.         WCI  - WIND CHILL INDEX.

*  THESE STATIONS ARE NOT NWS OR FAA STATIONS AND ARE NOT UNDER
   NWS QUALITY CONTROL.

LAZ040-048-061>063-065-066-069-281700-
SOUTHEAST LOUISIANA

CITY           SKY/WX    TMP DP  RH WIND       PRES   REMARKS
N.O. AUDUBON     N/A     79  73  83 MISG        N/A
N.O. INTL ARPT CLOUDY    83  71  67 SE12      30.03R
N.O. LAKEFRONT CLOUDY    82  73  74 E12       30.04R
N.O. DOWNTOWN* FAIR      80  71  74 E9        30.04R
RESERVE*       FAIR      88  78  73 E13G18    30.02R HX 102
SLIDELL        LGT RAIN  79  76  90 E3        30.03R
BATON ROUGE    MOSUNNY   86  75  69 E8        30.03R HX  95
BOOTHVILLE     LGT RAIN  76  74  93 SE6       30.04R
BELLE CHASSE   PTSUNNY   78  75  90 E3        30.03S
BOGALUSA*      FAIR      86  73  63 E5        30.06R
GALLIANO*      PTSUNNY   82  80  93 E8        30.01R
NEW ROADS*     FAIR      86  76  72 E8        30.03S HX  95
GONZALES*      FAIR      84  77  79 E5        30.01R
HAMMOND*       MOSUNNY   88  70  55 E9        30.03R
HOUMA*         PTSUNNY   84  79  84 NE12      30.01S HX  96
PORT FOURCHON* PTSUNNY   84  75  74 E13       29.99F

$$

LAZ041-044-053-054-281700-
SOUTHWEST LOUISIANA

CITY           SKY/WX    TMP DP  RH WIND       PRES   REMARKS
LAKE CHARLES   CLOUDY    83  77  82 E8        30.00R
LAFAYETTE      MOSUNNY   86  76  71 VRB7      30.01R HX  96
PATTERSON      CLOUDY    84  78  82 E13G20    30.00F HX  95
SALT POINT       N/A     85  77  77 E7        29.98S HX  95
NEW IBERIA     MOSUNNY   86  75  69 E12       30.01R HX  95
CHENAULT AIRPK PTSUNNY   84  79  84 E10       30.01R HX  96

$$

LAZ027-028-281700-
CENTRAL LOUISIANA

CITY           SKY/WX    TMP DP  RH WIND       PRES   REMARKS
FORT POLK      MOSUNNY   84  75  74 NE8       30.03S
ALEXANDRIA INT MOSUNNY   85  77  77 NE8       30.02F HX  95
ALEXANDRIA     MOSUNNY   86  78  77 NE5       30.05S HX  98

$$

LAZ001-002-281700-
NORTHWEST LOUISIANA

CITY           SKY/WX    TMP DP  RH WIND       PRES   REMARKS
SHREVEPORT     PTSUNNY   88  76  67 N8        30.06S HX  99
BARKSDALE AFB  SUNNY     85  74  69 NE6       30.06S
DTN SHREVEPORT MOSUNNY   86  74  67 N6        30.06S

$$

LAZ014-016-281700-
NORTHEAST LOUISIANA

CITY           SKY/WX    TMP DP  RH WIND       PRES   REMARKS
MONROE         SUNNY     89  74  60 CALM      30.07R HX  98
TALLULAH       SUNNY     91  73  55 E8        30.07R HX  99

$$





USA.gov is the U.S. government's official web portal to all federal, state and local government web resources and services.